Powrót do katalogu

STARLINK-36245

AktywnyŁącznośćVLEO
NORAD 68328·PAYLOAD·🇺🇸 United States

Wystrzelony Mar 22, 2026 z Cape Canaveral Space Force Station

Loading…

Następne Przeloty (najbliższe 24 godziny)

TLE

ŚwieżeSource: CelesTrak SupGP

Epoka: Sep 14, 2026, 22:37 UTC

1 68328C 26059H   26257.94284722 -.00030587  00000+0 -90346-3 0  2575
2 68328  53.1587 187.4996 0001315  88.8715 326.1336 15.34414763    12

Śledź STARLINK-36245 w czasie rzeczywistym z AllMySat

Download on the App Store